$DATE,$TIME,DM0600B,DM0602B,DM0604B,DM0614B,DM0616B,DM0618B,DM0624B,DM0628B,DM0630B,DM0634B,DM0606B,DM0608B,DM0610B
07/03/94,00:00:00,44,38,35,0,0,0,0,54,24,0,13,13,8
07/03/94,00:05:00,39,12,4,0,0,0,0,56,24,0,11,10,8
07/03/94,00:10:00,47,11,2,0,0,0,0,56,24,0,10,9,8
07/03/94,00:15:00,47,7,15,0,0,0,0,56,24,0,9,8,7
07/03/94,00:20:00,42,10,9,0,0,0,0,56,24,0,8,7,7
07/03/94,00:25:00,49,14,18,0,0,0,0,56,24,0,8,6,7
07/03/94,00:30:00,49,14,0,0,0,0,0,56,24,0,7,6,6
07/03/94,00:35:00,62,10,14,0,0,0,0,56,24,0,7,5,6
07/03/94,00:40:00,68,3,16,0,0,0,0,56,24,0,7,5,6
07/03/94,00:45:00,56,6,17,0,0,0,0,56,24,0,7,5,7
07/03/94,00:50:00,61,6,18,0,0,0,0,56,24,0,7,6,7
07/03/94,00:55:00,66,8,17,0,0,0,0,56,24,0,7,6,7
07/03/94,01:00:00,70,9,17,0,0,0,0,56,24,0,7,5,6
07/03/94,01:05:00,56,8,18,0,0,0,0,56,24,0,7,5,6
07/03/94,01:10:00,68,6,20,0,0,0,0,56,24,0,7,5,6
07/03/94,01:15:00,63,8,19,0,0,0,0,56,24,0,6,5,6
07/03/94,01:20:00,70,8,18,0,0,0,0,55,24,0,6,5,6
07/03/94,01:25:00,60,6,20,0,0,0,0,55,24,0,7,5,6
07/03/94,01:30:00,65,5,19,0,0,0,0,55,24,0,6,5,6
07/03/94,01:35:00,59,7,16,0,0,0,0,56,24,0,6,5,6
07/03/94,01:40:00,58,7,19,0,0,0,0,56,24,0,6,5,5
07/03/94,01:45:00,67,4,17,0,0,0,0,55,24,0,6,6,5
07/03/94,01:50:00,50,3,21,0,0,0,0,56,35,0,6,6,6
07/03/94,01:55:00,55,8,20,0,0,0,0,56,24,0,6,6,7
07/03/94,02:00:00,61,7,15,0,0,0,0,56,24,0,7,5,6
07/03/94,02:05:00,38,9,6,0,0,0,0,56,24,0,7,5,6
07/03/94,02:10:00,40,1,10,0,0,0,0,56,24,0,7,5,6
07/03/94,02:15:00,18,0,0,0,0,0,0,56,24,0,7,8,6
07/03/94,02:20:00,21,4,0,0,0,0,0,57,24,0,7,21,6
07/03/94,02:25:00,44,5,0,0,0,0,0,57,24,0,17,17,6
07/03/94,02:30:00,37,0,16,0,0,0,0,57,24,0,17,13,6
07/03/94,02:35:00,53,4,0,0,0,0,0,57,24,0,13,10,6
07/03/94,02:40:00,74,10,26,0,0,0,0,56,24,0,11,9,6
07/03/94,02:45:00,73,9,21,0,0,0,0,56,24,0,9,8,6
07/03/94,02:50:00,69,12,13,0,0,0,0,56,24,0,8,7,6
07/03/94,02:55:00,63,5,14,0,0,0,0,56,24,0,8,7,7
07/03/94,03:00:00,66,5,0,0,0,0,0,56,24,0,7,6,6
07/03/94,03:05:00,65,7,19,0,0,0,0,56,24,0,7,6,6
07/03/94,03:10:00,53,5,20,0,0,0,0,55,24,0,6,6,6
07/03/94,03:15:00,71,7,18,0,0,0,0,55,24,0,6,6,6
07/03/94,03:20:00,69,5,14,0,0,0,0,56,24,0,6,6,6
07/03/94,03:25:00,38,3,4,0,0,0,0,56,24,0,6,6,6
07/03/94,03:30:00,73,12,23,0,0,0,0,56,24,0,6,6,6
07/03/94,03:35:00,53,0,19,0,0,0,0,56,24,0,6,6,6
07/03/94,03:40:00,54,8,2,0,0,0,0,56,24,0,7,5,6
07/03/94,03:45:00,63,7,0,0,0,0,0,56,24,0,7,8,6
07/03/94,03:50:00,57,2,8,0,0,0,0,56,24,0,7,18,6
07/03/94,03:55:00,65,5,19,0,0,0,0,56,24,0,7,14,6
07/03/94,04:00:00,57,0,12,0,0,0,0,56,24,0,7,11,7
07/03/94,04:05:00,72,12,26,0,0,0,0,56,24,0,6,9,7
07/03/94,04:10:00,12,0,8,0,0,0,0,57,24,0,7,9,7
07/03/94,04:15:00,39,4,0,0,0,0,0,57,24,0,16,20,6
07/03/94,04:20:00,41,3,31,0,0,0,0,57,24,0,18,19,6
07/03/94,04:25:00,32,0,12,0,0,0,0,57,24,0,14,14,6
07/03/94,04:30:00,5,0,10,0,0,0,0,57,24,0,11,12,6
07/03/94,04:35:00,29,0,0,0,0,0,0,57,24,0,17,23,21
07/03/94,04:40:00,0,0,5,0,0,0,0,57,24,0,23,22,16
07/03/94,04:45:00,0,0,0,0,0,0,0,57,25,0,17,20,15
07/03/94,04:50:00,0,1,0,0,0,0,0,57,24,0,25,31,23
07/03/94,04:55:00,2,11,8,0,0,0,0,57,24,0,21,19,14
07/03/94,05:00:00,25,20,14,0,0,0,0,57,24,0,16,26,19
07/03/94,05:05:00,38,28,14,0,0,0,0,56,24,0,21,22,18
07/03/94,05:10:00,12,9,16,0,0,0,0,56,24,0,16,14,12
07/03/94,05:15:00,0,4,7,0,0,0,0,56,24,0,15,21,13
07/03/94,05:20:00,0,0,3,0,0,0,0,57,24,0,25,25,20
07/03/94,05:25:00,2,2,7,0,0,0,0,56,24,0,19,17,14
07/03/94,05:30:00,2,0,0,0,0,0,0,57,24,0,20,28,22
07/03/94,05:35:00,0,4,11,0,0,0,0,57,24,0,24,21,17
07/03/94,05:40:00,9,4,3,0,0,0,0,57,24,0,18,21,16
07/03/94,05:45:00,8,11,9,0,0,0,0,57,24,0,27,29,23
07/03/94,05:50:00,0,0,2,0,0,0,0,57,24,0,19,18,14
07/03/94,05:55:00,0,0,0,0,0,0,0,57,24,0,23,28,27
07/03/94,06:00:00,0,0,0,0,0,0,0,57,25,0,25,24,17
07/03/94,06:05:00,0,0,0,0,0,0,0,57,25,0,22,26,29
07/03/94,06:10:00,0,0,0,0,0,0,0,57,25,0,30,31,18
07/03/94,06:15:00,0,0,0,0,0,0,0,57,25,0,22,25,30
07/03/94,06:20:00,0,0,0,0,0,0,0,57,25,0,32,35,19
07/03/94,06:25:00,0,0,0,0,0,0,0,58,25,0,22,22,28
07/03/94,06:30:00,0,0,0,0,0,0,0,57,25,0,31,34,25
07/03/94,06:35:00,0,0,0,0,0,0,0,57,25,0,24,23,21
07/03/94,06:40:00,0,0,0,0,0,0,0,57,25,0,29,31,31
07/03/94,06:45:00,0,0,0,0,0,0,0,57,25,0,27,28,20
07/03/94,06:50:00,0,0,0,0,0,0,0,58,25,0,27,28,29
07/03/94,06:55:00,0,0,12,0,0,0,0,58,25,0,28,33,27
07/03/94,07:00:00,0,0,0,0,0,0,0,58,54,0,26,25,21
07/03/94,07:05:00,0,0,0,0,0,0,0,57,25,0,30,35,27
07/03/94,07:10:00,0,0,0,0,0,0,0,58,25,0,25,24,27
07/03/94,07:15:00,0,0,0,0,0,0,0,58,25,0,32,36,21
07/03/94,07:20:00,0,0,0,0,0,0,0,58,25,0,21,21,28
07/03/94,07:25:00,0,0,0,0,0,0,0,58,25,0,32,32,25
07/03/94,07:30:00,0,0,0,0,0,0,0,58,25,0,23,25,21
07/03/94,07:35:00,0,0,0,0,0,0,0,58,25,0,30,30,32
07/03/94,07:40:00,0,0,0,0,0,0,0,58,25,0,26,29,22
07/03/94,07:45:00,0,0,0,0,0,0,0,57,25,0,29,29,28
07/03/94,07:50:00,0,0,0,0,0,0,0,57,25,0,27,33,29
07/03/94,07:55:00,0,0,0,0,0,0,0,58,25,0,28,26,21
07/03/94,08:00:00,0,0,12,0,0,0,0,57,25,0,31,37,30
07/03/94,08:05:00,0,0,0,0,0,0,0,57,25,0,26,24,27
07/03/94,08:10:00,23,4,9,0,0,0,0,57,25,0,32,35,22
07/03/94,08:15:00,1,0,0,0,0,0,0,57,25,0,21,21,24
07/03/94,08:20:00,0,0,0,0,0,0,0,57,25,0,32,32,22
07/03/94,08:25:00,3,0,0,0,0,0,0,57,25,0,22,23,30
07/03/94,08:30:00,0,0,0,0,0,0,0,57,26,0,30,31,20
07/03/94,08:35:00,0,0,0,0,0,0,0,57,25,0,24,26,27
07/03/94,08:40:00,0,0,0,0,0,0,0,57,25,0,29,29,28
07/03/94,08:45:00,0,0,7,0,0,0,0,57,25,0,26,31,20
07/03/94,08:50:00,0,0,0,0,0,0,0,57,25,0,28,28,31
07/03/94,08:55:00,0,0,0,0,0,0,0,58,25,0,28,32,25
07/03/94,09:00:00,0,0,0,0,0,0,0,58,25,0,27,26,23
07/03/94,09:05:00,0,0,0,0,0,0,0,57,25,0,32,35,32
07/03/94,09:10:00,0,0,0,0,0,0,0,57,25,0,25,26,24
07/03/94,09:15:00,0,0,0,0,0,0,0,57,25,0,33,36,26
07/03/94,09:20:00,0,0,0,0,0,0,0,57,25,0,24,25,30
07/03/94,09:25:00,0,0,0,0,0,0,0,57,25,0,34,37,21
07/03/94,09:30:00,0,0,0,0,0,0,0,58,25,0,23,23,31
07/03/94,09:35:00,0,0,0,0,0,0,0,58,25,0,34,35,28
07/03/94,09:40:00,0,0,0,0,0,0,0,58,25,0,23,24,21
07/03/94,09:45:00,0,0,0,0,0,0,0,58,25,0,33,32,33
07/03/94,09:50:00,0,0,0,0,0,0,0,58,25,0,24,27,25
07/03/94,09:55:00,0,0,0,0,0,0,0,57,25,0,32,32,25
07/03/94,10:00:00,0,0,0,0,0,0,0,57,27,0,26,31,32
07/03/94,10:05:00,0,0,0,0,0,0,0,58,25,0,30,29,24
07/03/94,10:10:00,0,0,0,0,0,0,0,57,25,0,28,32,25
07/03/94,10:15:00,0,0,0,0,0,0,0,58,25,0,29,29,33
07/03/94,10:20:00,0,0,0,0,0,0,0,58,25,0,29,35,22
07/03/94,10:25:00,0,0,0,0,0,0,0,58,25,0,28,27,31
07/03/94,10:30:00,0,0,0,0,0,0,0,57,25,0,32,37,29
07/03/94,10:35:00,0,0,0,0,0,0,0,57,25,0,25,25,22
07/03/94,10:40:00,0,0,0,0,0,0,0,57,25,0,34,36,30
07/03/94,10:45:00,0,0,0,0,0,0,0,58,25,0,24,24,28
07/03/94,10:50:00,7,0,8,0,0,0,0,57,25,0,34,36,22
07/03/94,10:55:00,0,0,0,0,0,0,0,58,25,0,23,23,33
07/03/94,11:00:00,0,0,0,0,0,0,0,58,25,0,35,34,23
07/03/94,11:05:00,0,0,0,0,0,0,0,57,25,0,23,24,25
07/03/94,11:10:00,0,0,0,0,0,0,0,57,25,0,33,32,33
07/03/94,11:15:00,0,0,0,0,0,0,0,58,25,0,25,28,23
07/03/94,11:20:00,0,0,0,0,0,0,0,58,25,0,32,32,29
07/03/94,11:25:00,0,0,0,0,0,0,0,58,25,0,25,29,29
07/03/94,11:30:00,0,0,0,0,0,0,0,58,25,0,30,30,22
07/03/94,11:35:00,0,0,0,0,0,0,0,57,25,0,29,34,31
07/03/94,11:40:00,0,0,0,0,0,0,0,58,25,0,28,28,29
07/03/94,11:45:00,0,0,0,0,0,0,0,58,25,0,31,35,21
07/03/94,11:50:00,0,0,0,0,0,0,0,58,25,0,27,27,34
07/03/94,11:55:00,0,0,0,0,0,0,0,58,25,0,33,37,24
07/03/94,12:00:00,0,0,2,0,0,0,0,58,25,0,24,25,26
07/03/94,12:05:00,0,0,0,0,0,0,0,57,25,0,34,37,32
07/03/94,12:10:00,0,0,0,0,0,0,0,58,25,0,24,24,24
07/03/94,12:15:00,0,0,0,0,0,0,0,58,25,0,35,36,29
07/03/94,12:20:00,0,0,0,0,0,0,0,58,25,0,23,24,30
07/03/94,12:25:00,0,0,0,0,0,0,0,58,25,0,35,35,21
07/03/94,12:30:00,0,0,0,0,0,0,0,58,25,0,24,24,29
07/03/94,12:35:00,0,0,0,0,0,0,0,58,25,0,33,32,30
07/03/94,12:40:00,0,0,0,0,0,0,0,57,25,0,25,28,21
07/03/94,12:45:00,0,0,0,0,0,0,0,57,25,0,31,31,32
07/03/94,12:50:00,0,0,0,0,0,0,0,58,25,0,27,31,28
07/03/94,12:55:00,0,0,0,0,0,0,0,58,25,0,30,29,22
07/03/94,13:00:00,0,0,0,0,0,0,0,58,25,0,29,34,31
07/03/94,13:05:00,0,0,0,0,0,0,0,58,25,0,28,28,29
07/03/94,13:10:00,0,0,0,0,0,0,0,57,25,0,31,35,21
07/03/94,13:15:00,0,0,0,0,0,0,0,58,25,0,26,26,34
07/03/94,13:20:00,0,0,0,0,0,0,0,58,25,0,34,37,25
07/03/94,13:25:00,0,0,0,0,0,0,0,58,25,0,24,25,24
07/03/94,13:30:00,0,0,2,0,0,0,0,58,25,0,35,37,32
07/03/94,13:35:00,0,0,0,0,0,0,0,58,25,0,24,24,26
07/03/94,13:40:00,0,0,0,0,0,0,0,57,25,0,35,36,25
07/03/94,13:45:00,0,0,0,0,0,0,0,58,25,0,23,24,33
07/03/94,13:50:00,0,0,0,0,0,0,0,58,25,0,34,35,24
07/03/94,13:55:00,0,0,0,0,0,0,0,58,25,0,24,26,26
07/03/94,14:00:00,0,0,0,0,0,0,0,58,25,0,32,32,33
07/03/94,14:05:00,0,0,0,0,0,0,0,58,25,0,25,28,23
07/03/94,14:10:00,0,0,0,0,0,0,0,58,25,0,32,31,29
07/03/94,14:15:00,0,0,0,0,0,0,0,57,25,0,27,32,29
07/03/94,14:20:00,0,0,0,0,0,0,0,58,25,0,29,28,22
07/03/94,14:25:00,0,0,0,0,0,0,0,58,25,0,30,35,29
07/03/94,14:30:00,0,0,0,0,0,0,0,58,25,0,27,27,30
07/03/94,14:35:00,0,0,0,0,0,0,0,58,25,0,32,36,21
07/03/94,14:40:00,0,0,0,0,0,0,0,58,25,0,26,27,34
07/03/94,14:45:00,0,0,0,0,0,0,0,58,25,0,34,38,27
07/03/94,14:50:00,0,0,0,0,0,0,0,58,25,0,24,25,23
07/03/94,14:55:00,0,0,0,0,0,0,0,58,25,0,35,36,33
07/03/94,15:00:00,0,0,0,0,0,0,0,58,25,0,24,24,26
07/03/94,15:05:00,0,0,0,0,0,0,0,58,25,0,36,35,25
07/03/94,15:10:00,0,0,2,0,0,0,0,58,25,0,24,25,32
07/03/94,15:15:00,0,0,0,0,0,0,0,57,25,0,33,33,23
07/03/94,15:20:00,0,0,0,0,0,0,0,57,25,0,25,27,26
07/03/94,15:25:00,0,0,0,0,0,0,0,57,25,0,32,32,33
07/03/94,15:30:00,0,0,0,0,0,0,0,58,25,0,27,30,21
07/03/94,15:35:00,0,0,0,0,0,0,0,58,25,0,30,30,31
07/03/94,15:40:00,0,0,0,0,0,0,0,58,25,0,29,31,29
07/03/94,15:45:00,0,0,0,0,0,0,0,57,25,0,28,29,22
07/03/94,15:50:00,0,0,0,0,0,0,0,57,25,0,32,36,30
07/03/94,15:55:00,0,0,0,0,0,0,0,58,25,0,27,28,30
07/03/94,16:00:00,0,0,0,0,0,0,0,58,25,0,32,36,21
07/03/94,16:05:00,0,0,0,0,0,0,0,58,25,0,26,27,33
07/03/94,16:10:00,0,0,0,0,0,0,0,57,25,0,35,37,26
07/03/94,16:15:00,0,0,0,0,0,0,0,58,25,0,24,24,22
07/03/94,16:20:00,0,0,0,0,0,0,0,58,25,0,35,35,33
07/03/94,16:25:00,0,0,0,0,0,0,0,58,25,0,24,25,26
07/03/94,16:30:00,0,0,0,0,0,0,0,58,25,0,34,34,25
07/03/94,16:35:00,0,0,0,0,0,0,0,58,25,0,24,28,33
07/03/94,16:40:00,0,0,0,0,0,0,0,58,25,0,33,32,25
07/03/94,16:45:00,0,0,0,0,0,0,0,57,25,0,26,29,24
07/03/94,16:50:00,0,0,0,0,0,0,0,58,25,0,31,30,33
07/03/94,16:55:00,0,0,0,0,0,0,0,58,25,0,27,32,23
07/03/94,17:00:00,0,0,0,0,0,0,0,58,25,0,30,29,29
07/03/94,17:05:00,0,0,0,0,0,0,0,57,25,0,31,35,30
07/03/94,17:10:00,0,0,0,0,0,0,0,58,25,0,27,28,22
07/03/94,17:15:00,0,0,0,0,0,0,0,58,25,0,33,35,29
07/03/94,17:20:00,0,0,0,0,0,0,0,58,25,0,26,27,31
07/03/94,17:25:00,0,0,0,0,0,0,0,58,25,0,34,37,21
07/03/94,17:30:00,0,0,0,0,0,0,0,58,25,0,24,26,32
07/03/94,17:35:00,0,0,0,0,0,0,0,58,25,0,35,37,29
07/03/94,17:40:00,0,0,0,0,0,0,0,57,25,0,24,25,22
07/03/94,17:45:00,0,0,0,0,0,0,0,58,25,0,35,35,31
07/03/94,17:50:00,0,0,0,0,0,0,0,58,25,0,24,24,27
07/03/94,17:55:00,0,0,0,0,0,0,0,58,25,0,34,33,24
07/03/94,18:00:00,0,0,0,0,0,0,0,57,25,0,25,28,33
07/03/94,18:05:00,0,0,0,0,0,0,0,58,25,0,31,31,26
07/03/94,18:10:00,0,0,0,0,0,0,0,58,25,0,28,32,24
07/03/94,18:15:00,0,0,0,0,0,0,0,58,25,0,30,29,34
07/03/94,18:20:00,0,0,0,0,0,0,0,58,25,0,29,34,24
07/03/94,18:25:00,0,0,0,0,0,0,0,58,25,0,28,27,28
07/03/94,18:30:00,0,0,0,0,0,0,0,57,25,0,32,36,32
07/03/94,18:35:00,0,0,0,0,0,0,0,58,25,0,26,25,24
07/03/94,18:40:00,0,0,0,0,0,0,0,57,25,0,34,37,27
07/03/94,18:45:00,0,0,0,0,0,0,0,58,25,0,25,25,30
07/03/94,18:50:00,0,0,0,0,0,0,0,58,25,0,35,37,21
07/03/94,18:55:00,0,0,0,0,0,0,0,57,25,0,24,24,32
07/03/94,19:00:00,0,0,0,0,0,0,0,57,25,0,36,36,29
07/03/94,19:05:00,0,0,0,0,0,0,0,58,25,0,23,24,22
07/03/94,19:10:00,0,0,0,0,0,0,0,58,25,0,33,33,33
07/03/94,19:15:00,0,0,0,0,0,0,0,58,25,0,25,26,26
07/03/94,19:20:00,0,0,0,0,0,0,0,57,25,0,32,33,26
07/03/94,19:25:00,0,0,0,0,0,0,0,57,25,0,27,28,32
07/03/94,19:30:00,0,0,0,0,0,0,0,58,25,0,30,30,25
07/03/94,19:35:00,0,0,0,0,0,0,0,58,25,0,29,32,25
07/03/94,19:40:00,0,0,0,0,0,0,0,58,25,0,29,29,34
07/03/94,19:45:00,0,0,0,0,0,0,0,58,25,0,31,37,23
07/03/94,19:50:00,0,0,0,0,0,0,0,58,25,0,27,26,28
07/03/94,19:55:00,0,0,0,0,0,0,0,57,25,0,34,36,33
07/03/94,20:00:00,0,0,0,0,0,0,0,58,25,0,25,26,24
07/03/94,20:05:00,0,0,0,0,0,0,0,58,25,0,35,34,29
07/03/94,20:10:00,0,0,0,0,0,0,0,58,25,0,24,26,30
07/03/94,20:15:00,0,0,0,0,0,0,0,57,25,0,35,32,22
07/03/94,20:20:00,0,0,0,0,0,0,0,58,25,0,24,29,29
07/03/94,20:25:00,0,0,0,0,0,0,0,58,25,0,32,30,30
07/03/94,20:30:00,0,0,0,0,0,0,0,57,25,0,26,33,21
07/03/94,20:35:00,0,0,0,0,0,0,0,58,25,0,30,28,32
07/03/94,20:40:00,0,0,0,0,0,0,0,57,25,0,30,36,28
07/03/94,20:45:00,0,0,0,0,0,0,0,57,25,0,28,27,23
07/03/94,20:50:00,0,0,0,0,0,0,0,57,25,0,33,37,32
07/03/94,20:55:00,0,0,0,0,0,0,0,58,25,0,26,24,28
07/03/94,21:00:00,0,0,0,0,0,0,0,58,25,0,35,38,23
07/03/94,21:05:00,0,0,0,0,0,0,0,57,25,0,24,23,34
07/03/94,21:10:00,0,0,0,0,0,0,0,58,25,0,36,35,26
07/03/94,21:15:00,0,0,0,0,0,0,0,58,25,0,23,25,23
07/03/94,21:20:00,0,0,0,0,0,0,0,58,25,0,33,33,34
07/03/94,21:25:00,0,0,0,0,0,0,0,58,25,0,25,27,24
07/03/94,21:30:00,0,0,0,0,0,0,0,57,25,0,32,31,28
07/03/94,21:35:00,0,0,0,0,0,0,0,57,25,0,27,30,31
07/03/94,21:40:00,0,0,0,0,0,0,0,58,25,0,29,28,22
07/03/94,21:45:00,0,0,0,0,0,0,0,58,25,0,31,35,29
07/03/94,21:50:00,0,0,0,0,0,0,0,57,25,0,27,27,31
07/03/94,21:55:00,0,0,0,0,0,0,0,57,25,0,32,37,21
07/03/94,22:00:00,0,0,0,0,0,0,0,58,25,0,26,25,34
07/03/94,22:05:00,0,0,0,0,0,0,0,58,25,0,35,38,26
07/03/94,22:10:00,0,0,0,0,0,0,0,57,25,0,24,23,23
07/03/94,22:15:00,0,0,0,0,0,0,0,58,25,0,36,36,33
07/03/94,22:20:00,0,0,0,0,0,0,0,57,25,0,24,24,25
07/03/94,22:25:00,0,0,0,0,0,0,0,58,25,0,35,34,27
07/03/94,22:30:00,0,0,0,0,0,0,0,58,25,0,23,26,32
07/03/94,22:35:00,0,0,0,0,0,0,0,58,25,0,34,32,23
07/03/94,22:40:00,0,0,0,0,0,0,0,58,25,0,25,31,29
07/03/94,22:45:00,0,0,0,0,0,0,0,58,25,0,31,29,32
07/03/94,22:50:00,0,0,0,0,0,0,0,57,25,0,28,33,21
07/03/94,22:55:00,0,0,0,0,0,0,0,58,25,0,30,28,32
07/03/94,23:00:00,0,0,0,0,0,0,0,58,25,0,30,36,28
07/03/94,23:05:00,0,0,0,0,0,0,0,58,25,0,28,25,22
07/03/94,23:10:00,0,0,0,0,0,0,0,57,25,0,33,38,31
07/03/94,23:15:00,0,0,0,0,0,0,0,58,25,0,26,24,29
07/03/94,23:20:00,0,0,0,0,0,0,0,58,25,0,35,37,23
07/03/94,23:25:00,0,0,0,0,0,0,0,57,25,0,24,23,34
07/03/94,23:30:00,0,0,0,0,0,0,0,58,25,0,36,36,25
07/03/94,23:35:00,0,0,1,0,0,0,0,57,25,0,23,24,23
07/03/94,23:40:00,0,0,0,0,0,0,0,58,25,0,33,33,34
07/03/94,23:45:00,0,0,6,0,0,0,0,58,25,0,25,26,23
07/03/94,23:50:00,0,0,3,0,0,0,0,57,25,0,32,31,26
07/03/94,23:55:00,2,0,3,0,0,0,0,57,25,0,25,28,32
07/04/94,00:00:00,1,0,3,0,0,0,0,58,25,0,30,28,23
